Ephrata, WA
on Tuesday, December 18, 2012

Tuesday
Previous Day Next Day
Daily Summary
 ActualAverageRecord
Temperature
Mean Temperature °F 26°F  
Max Temperature 32°F 32°F 54°F (1999)
Min Temperature 15°F 20°F 0°F (1984)
Degree Days
Heating Degree Days 41 39  
Month to date heating degree days 545 662  
Since 1 July heating degree days 1805 2081  
Cooling Degree Days 0 0  
Month to date cooling degree days 0 0  
Year to date cooling degree days 837 772  
Moisture
Dew Point 18°F   
Average Humidity 80    
Maximum Humidity 91    
Minimum Humidity 68    
Precipitation
Precipitation 0.00 in 0.04 in 0.35 in (1960)
Month to date precipitation 1.19 0.73  
Year to date precipitation 8.14 7.34  
Wind
Wind Speed 5 mph   
Max Wind Speed 12 mph   
Max Gust Speed 12 mph   
Visibility 10 miles   
Events     

Key: T is trace of precipitation, MM is missing value
Source: NWS Daily Summary
Time(PST)TemperatureDew PointHumidity Pressure Visibility Wind DirectionWind SpeedGust SpeedPrecipitationEvents Conditions
12:53 AM 21.9°F 16.0°F 78% 29.85 in 10.0 miles SW 4.6 mph - N/A   Clear
1:53 AM 21.0°F 17.1°F 85% 29.86 in 10.0 miles East 3.5 mph - N/A   Clear
2:53 AM 21.9°F 17.1°F 82% 29.88 in 10.0 miles NNW 6.9 mph - N/A   Clear
3:53 AM 19.9°F 16.0°F 85% 29.88 in 10.0 miles North 5.8 mph - N/A   Clear
4:53 AM 21.0°F 15.1°F 78% 29.88 in 10.0 miles Calm Calm - N/A   Clear
5:53 AM 21.0°F 15.1°F 78% 29.90 in 10.0 miles Calm Calm - N/A   Clear
6:53 AM 19.9°F 16.0°F 85% 29.90 in 10.0 miles North 4.6 mph - N/A   Clear
7:53 AM 19.9°F 17.1°F 89% 29.92 in 10.0 miles North 4.6 mph - N/A   Partly Cloudy
8:53 AM 23.0°F 18.0°F 81% 29.93 in 10.0 miles North 3.5 mph - N/A   Clear
9:53 AM 24.1°F 19.0°F 81% 29.94 in 10.0 miles Calm Calm - N/A   Clear
10:53 AM 28.0°F 21.9°F 78% 29.94 in 10.0 miles North 9.2 mph - N/A   Clear
11:53 AM 30.0°F 24.1°F 79% 29.92 in 10.0 miles North 5.8 mph - N/A   Scattered Clouds
12:53 PM 32.0°F 24.1°F 73% 29.92 in 10.0 miles NNE 5.8 mph - N/A   Clear
1:53 PM 30.0°F 24.1°F 79% 29.92 in 10.0 miles North 5.8 mph - N/A   Clear
2:53 PM 30.0°F 24.1°F 79% 29.93 in 10.0 miles North 5.8 mph - N/A   Mostly Cloudy
3:53 PM 28.0°F 21.9°F 78% 29.94 in 10.0 miles North 5.8 mph - N/A   Clear
4:53 PM 25.0°F 21.0°F 85% 29.96 in 10.0 miles North 4.6 mph - N/A   Clear
5:53 PM 23.0°F 17.1°F 78% 29.96 in 10.0 miles North 6.9 mph - N/A   Clear
6:53 PM 23.0°F 16.0°F 74% 29.98 in 10.0 miles NNW 5.8 mph - N/A   Clear
7:53 PM 19.9°F 15.1°F 81% 29.99 in 10.0 miles North 5.8 mph - N/A   Clear
8:53 PM 18.0°F 12.9°F 81% 30.00 in 10.0 miles NNE 4.6 mph - N/A   Clear
9:53 PM 17.1°F 12.9°F 84% 30.01 in 10.0 miles North 3.5 mph - N/A   Clear
10:53 PM 18.0°F 14.0°F 84% 30.01 in 10.0 miles North 5.8 mph - N/A   Clear
11:53 PM 16.0°F 12.0°F 84% 30.02 in 10.0 miles NE 5.8 mph - N/A   Clear
Moon Phase
Dec. 18 Dec. 20 Dec. 28 Jan. 04 Jan. 11
Sunrise:07:40 AM (PST) Moon Rise:11:00 AM (PST)
Sunset:04:09 PM (PST) Moon Set:11:05 PM (PST)

Copyright © 2014 The Weather Underground, Inc.